AIQ554 VTBD-VYMD

Flight info

Callsign AIQ554
Flight time 1h 33m
Altitude 36000
Route NUNLI3C NUNLI L507 ARATO DCT DOGIP DOGIP1E
Aircraft A320/M-SDE3FGHIRWY/LB1

Departure

Time 2026-04-25 15:07
Airport Don Mueang International Airport (VTBD)

Arrival

Time 2026-04-25 16:40
Airport Mandalay International Airport (VYMD)
Time Latitude Longitude Altitude Speed Heading
2026-04-25 14:31 13.92105 100.60506 17 ft 0 kts 208°
2026-04-25 14:50 13.92112 100.60510 17 ft 3 kts 209°
2026-04-25 14:50 13.92129 100.60521 19 ft 3 kts 213°
2026-04-25 14:51 13.92146 100.60532 19 ft 3 kts 221°
2026-04-25 14:51 13.92159 100.60547 20 ft 3 kts 246°
2026-04-25 14:51 13.92162 100.60562 19 ft 2 kts 296°
2026-04-25 14:51 13.92155 100.60577 20 ft 3 kts 298°
2026-04-25 14:52 13.92145 100.60595 19 ft 3 kts 298°
2026-04-25 14:52 13.92135 100.60613 20 ft 3 kts 299°
2026-04-25 14:52 13.92128 100.60628 18 ft 1 kts 299°
2026-04-25 14:52 13.92124 100.60635 18 ft 3 kts 298°
2026-04-25 14:53 13.92110 100.60658 18 ft 3 kts 318°
2026-04-25 14:53 13.92100 100.60665 20 ft 2 kts 21°
2026-04-25 14:53 13.92090 100.60661 20 ft 3 kts 28°
2026-04-25 14:53 13.92073 100.60651 20 ft 3 kts 28°
2026-04-25 14:54 13.92055 100.60641 21 ft 3 kts 28°
2026-04-25 14:54 13.92037 100.60631 21 ft 3 kts 28°
2026-04-25 14:54 13.92019 100.60621 19 ft 3 kts 28°
2026-04-25 14:54 13.92009 100.60615 19 ft 0 kts 28°
2026-04-25 14:58 13.92012 100.60617 19 ft 3 kts 28°
2026-04-25 14:59 13.92074 100.60651 20 ft 16 kts 27°
2026-04-25 14:59 13.92197 100.60721 18 ft 24 kts 28°
2026-04-25 14:59 13.92348 100.60806 18 ft 26 kts 28°
2026-04-25 14:59 13.92510 100.60897 18 ft 27 kts 28°
2026-04-25 15:00 13.92654 100.60977 18 ft 15 kts 28°
2026-04-25 15:00 13.92671 100.61054 20 ft 11 kts 117°
2026-04-25 15:00 13.92650 100.61093 17 ft 0 kts 119°
2026-04-25 15:04 13.92613 100.61162 16 ft 17 kts 118°
2026-04-25 15:04 13.92553 100.61274 17 ft 19 kts 119°
2026-04-25 15:05 13.92488 100.61394 16 ft 20 kts 119°
2026-04-25 15:05 13.92433 100.61499 14 ft 14 kts 118°
2026-04-25 15:05 13.92389 100.61517 14 ft 0 kts 205°
2026-04-25 15:06 13.92351 100.61498 15 ft 30 kts 208°
2026-04-25 15:06 13.92123 100.61369 16 ft 81 kts 209°
2026-04-25 15:06 13.91142 100.60818 19 ft 157 kts 209°
2026-04-25 15:06 13.90154 100.60232 576 ft 165 kts 210°
2026-04-25 15:07 13.89141 100.59660 1296 ft 166 kts 208°
2026-04-25 15:07 13.88449 100.59278 1616 ft 177 kts 212°
2026-04-25 15:07 13.87634 100.58257 1916 ft 200 kts 255°
2026-04-25 15:07 13.87755 100.56768 2184 ft 226 kts 289°
2026-04-25 15:08 13.88596 100.54638 2733 ft 258 kts 292°
2026-04-25 15:08 13.89083 100.53468 3184 ft 267 kts 293°
2026-04-25 15:08 13.89822 100.51691 4025 ft 273 kts 292°
2026-04-25 15:08 13.90555 100.49896 4870 ft 278 kts 292°
2026-04-25 15:09 13.91299 100.48046 5709 ft 283 kts 291°
2026-04-25 15:09 13.92052 100.46144 6572 ft 287 kts 291°
2026-04-25 15:09 13.93565 100.42276 8250 ft 294 kts 291°
2026-04-25 15:10 13.94330 100.40307 9101 ft 297 kts 291°
2026-04-25 15:10 13.95097 100.38336 9924 ft 301 kts 292°
2026-04-25 15:10 13.97390 100.34469 10599 ft 340 kts 319°
2026-04-25 15:11 13.99382 100.33121 11158 ft 347 kts 336°
2026-04-25 15:11 14.01714 100.32444 11839 ft 350 kts 353°
2026-04-25 15:11 14.04149 100.32155 12567 ft 353 kts 354°
2026-04-25 15:12 14.09051 100.31594 13921 ft 360 kts 354°
2026-04-25 15:12 14.11549 100.31303 14518 ft 363 kts 354°
2026-04-25 15:12 14.14072 100.31009 15116 ft 366 kts 354°
2026-04-25 15:12 14.15747 100.30814 15530 ft 367 kts 353°
2026-04-25 15:13 14.19170 100.30418 16306 ft 372 kts 353°
2026-04-25 15:13 14.24332 100.29817 17445 ft 378 kts 353°
2026-04-25 15:13 14.26954 100.29468 18000 ft 382 kts 348°
2026-04-25 15:14 14.29455 100.28519 18483 ft 384 kts 330°
2026-04-25 15:14 14.31546 100.26797 18948 ft 387 kts 311°
2026-04-25 15:14 14.33094 100.24520 19415 ft 389 kts 302°
2026-04-25 15:14 14.34546 100.22144 19899 ft 392 kts 302°
2026-04-25 15:15 14.35988 100.19780 20364 ft 395 kts 302°
2026-04-25 15:15 14.37456 100.17373 20840 ft 397 kts 302°
2026-04-25 15:15 14.38940 100.14946 21307 ft 399 kts 302°
2026-04-25 15:15 14.40429 100.12517 21770 ft 402 kts 302°
2026-04-25 15:16 14.41936 100.10062 22229 ft 405 kts 302°
2026-04-25 15:16 14.43433 100.07629 22667 ft 408 kts 302°
2026-04-25 15:16 14.46504 100.02653 23535 ft 413 kts 302°
2026-04-25 15:17 14.49596 99.97612 24285 ft 417 kts 302°
2026-04-25 15:17 14.51148 99.95077 24667 ft 418 kts 302°
2026-04-25 15:17 14.52690 99.92556 25045 ft 420 kts 302°
2026-04-25 15:18 14.54255 99.90001 25428 ft 421 kts 302°
2026-04-25 15:18 14.57410 99.84862 26181 ft 424 kts 302°
2026-04-25 15:18 14.58990 99.82283 26553 ft 426 kts 302°
2026-04-25 15:19 14.60583 99.79682 26919 ft 427 kts 302°
2026-04-25 15:19 14.61637 99.77962 27157 ft 428 kts 302°
2026-04-25 15:19 14.63774 99.74471 27630 ft 430 kts 302°
2026-04-25 15:19 14.65357 99.71883 27981 ft 432 kts 302°
2026-04-25 15:20 14.66967 99.69249 28338 ft 433 kts 302°
2026-04-25 15:20 14.68582 99.66609 28681 ft 435 kts 302°
2026-04-25 15:20 14.70200 99.63961 29026 ft 436 kts 302°
2026-04-25 15:20 14.71824 99.61301 29353 ft 438 kts 302°
2026-04-25 15:21 14.73369 99.58767 29670 ft 439 kts 302°
2026-04-25 15:21 14.74999 99.56093 29999 ft 440 kts 302°
2026-04-25 15:21 14.76640 99.53403 30279 ft 441 kts 302°
2026-04-25 15:21 14.78278 99.50721 30529 ft 443 kts 302°
2026-04-25 15:22 14.79923 99.48027 30781 ft 444 kts 302°
2026-04-25 15:22 14.81572 99.45322 31036 ft 445 kts 302°
2026-04-25 15:22 14.83234 99.42594 31308 ft 446 kts 302°
2026-04-25 15:22 14.84866 99.39911 31627 ft 445 kts 303°
2026-04-25 15:23 14.86643 99.37304 32026 ft 443 kts 309°
2026-04-25 15:23 14.88586 99.34842 32391 ft 441 kts 309°
2026-04-25 15:23 14.90531 99.32382 32755 ft 440 kts 309°
2026-04-25 15:23 14.92471 99.29929 33135 ft 438 kts 309°
2026-04-25 15:24 14.94393 99.27496 33522 ft 436 kts 309°
2026-04-25 15:24 14.96290 99.25091 33914 ft 434 kts 309°
2026-04-25 15:24 14.98200 99.22670 34265 ft 433 kts 309°
2026-04-25 15:24 14.99485 99.21041 34480 ft 433 kts 309°
2026-04-25 15:25 15.02010 99.17841 34863 ft 432 kts 309°
2026-04-25 15:25 15.03911 99.15428 35141 ft 431 kts 309°
2026-04-25 15:25 15.05811 99.13015 35396 ft 431 kts 309°
2026-04-25 15:25 15.07680 99.10638 35651 ft 431 kts 309°
2026-04-25 15:26 15.09584 99.08216 35906 ft 431 kts 309°
2026-04-25 15:26 15.11476 99.05807 35982 ft 429 kts 309°
2026-04-25 15:26 15.15207 99.01063 36002 ft 426 kts 309°
2026-04-25 15:27 15.18947 98.96309 36006 ft 426 kts 309°
2026-04-25 15:28 15.24559 98.89158 36011 ft 426 kts 309°
2026-04-25 15:28 15.28308 98.84387 36012 ft 426 kts 309°
2026-04-25 15:29 15.32020 98.79637 36014 ft 426 kts 309°
2026-04-25 15:29 15.35759 98.74859 36011 ft 426 kts 309°
2026-04-25 15:30 15.38865 98.70892 36009 ft 426 kts 309°
2026-04-25 15:30 15.43228 98.65329 36002 ft 427 kts 309°
2026-04-25 15:31 15.46982 98.60531 35990 ft 427 kts 310°
2026-04-25 15:31 15.51274 98.56281 36002 ft 427 kts 319°
2026-04-25 15:32 15.55777 98.52277 35999 ft 426 kts 319°
2026-04-25 15:32 15.60252 98.48295 35984 ft 426 kts 319°
2026-04-25 15:33 15.66987 98.42279 35977 ft 426 kts 319°
2026-04-25 15:33 15.71491 98.38246 35976 ft 426 kts 319°
2026-04-25 15:34 15.75961 98.34252 35959 ft 426 kts 319°
2026-04-25 15:34 15.78948 98.31586 35957 ft 426 kts 319°
2026-04-25 15:35 15.87179 98.24219 35966 ft 426 kts 318°
2026-04-25 15:36 15.93901 98.18204 35958 ft 425 kts 318°
2026-04-25 15:36 15.98384 98.14181 35959 ft 425 kts 318°
2026-04-25 15:37 16.02870 98.10155 35956 ft 425 kts 318°
2026-04-25 15:37 16.07323 98.06171 35957 ft 425 kts 318°
2026-04-25 15:38 16.11800 98.02147 35947 ft 425 kts 318°
2026-04-25 15:38 16.16272 97.98118 35946 ft 425 kts 318°
2026-04-25 15:39 16.20726 97.94109 35960 ft 425 kts 318°
2026-04-25 15:39 16.25207 97.90084 35965 ft 423 kts 318°
2026-04-25 15:40 16.28166 97.87425 35961 ft 422 kts 318°
2026-04-25 15:40 16.34083 97.82095 35958 ft 421 kts 318°
2026-04-25 15:41 16.39073 97.78892 35956 ft 425 kts 336°
2026-04-25 15:41 16.44703 97.76956 35952 ft 426 kts 339°
2026-04-25 15:42 16.50316 97.75047 35952 ft 426 kts 339°
2026-04-25 15:42 16.55966 97.73122 35948 ft 426 kts 339°
2026-04-25 15:43 16.61608 97.71200 35948 ft 426 kts 339°
2026-04-25 15:43 16.67209 97.69291 35948 ft 426 kts 339°
2026-04-25 15:44 16.72847 97.67375 35948 ft 426 kts 339°
2026-04-25 15:44 16.78483 97.65455 35946 ft 426 kts 339°
2026-04-25 15:45 16.84122 97.63530 35948 ft 425 kts 339°
2026-04-25 15:45 16.87854 97.62258 35949 ft 425 kts 339°
2026-04-25 15:46 16.95358 97.59696 35952 ft 425 kts 338°
2026-04-25 15:46 17.00999 97.57773 35951 ft 425 kts 338°
2026-04-25 15:47 17.06627 97.55846 35945 ft 425 kts 338°
2026-04-25 15:47 17.12220 97.53929 35950 ft 425 kts 338°
2026-04-25 15:48 17.17746 97.52044 35940 ft 425 kts 338°
2026-04-25 15:48 17.23379 97.50120 35957 ft 425 kts 338°
2026-04-25 15:49 17.28964 97.48208 35960 ft 424 kts 338°
2026-04-25 15:49 17.34585 97.46273 35969 ft 424 kts 338°
2026-04-25 15:50 17.40157 97.44361 35969 ft 424 kts 338°
2026-04-25 15:50 17.45766 97.42436 35969 ft 424 kts 338°
2026-04-25 15:51 17.49519 97.41140 35977 ft 423 kts 338°
2026-04-25 15:51 17.56031 97.38900 35971 ft 423 kts 338°
2026-04-25 15:52 17.62548 97.36664 35976 ft 423 kts 337°
2026-04-25 15:52 17.68151 97.34732 35979 ft 423 kts 337°
2026-04-25 15:53 17.72843 97.33117 35983 ft 423 kts 337°
2026-04-25 15:53 17.78408 97.31198 35986 ft 423 kts 337°
2026-04-25 15:54 17.84013 97.29263 35981 ft 423 kts 337°
2026-04-25 15:54 17.89586 97.27341 35989 ft 423 kts 337°
2026-04-25 15:55 17.95188 97.25409 35985 ft 423 kts 337°
2026-04-25 15:55 18.00788 97.23470 35991 ft 423 kts 336°
2026-04-25 15:56 18.06333 97.21549 35994 ft 422 kts 336°
2026-04-25 15:56 18.11918 97.19615 35994 ft 422 kts 337°
2026-04-25 15:57 18.17512 97.17677 35997 ft 422 kts 336°
2026-04-25 15:57 18.23099 97.15742 35998 ft 422 kts 337°
2026-04-25 15:58 18.28643 97.13819 35987 ft 422 kts 336°
2026-04-25 15:58 18.34228 97.11877 36013 ft 423 kts 336°
2026-04-25 15:59 18.39810 97.09938 36010 ft 421 kts 336°
2026-04-25 15:59 18.45396 97.08004 36010 ft 421 kts 336°
2026-04-25 16:00 18.50026 97.06392 36009 ft 421 kts 336°
2026-04-25 16:00 18.56502 97.04139 36009 ft 420 kts 336°
2026-04-25 16:01 18.62067 97.02200 36010 ft 420 kts 336°
2026-04-25 16:01 18.67598 97.00266 36008 ft 420 kts 336°
2026-04-25 16:02 18.73155 96.98328 35993 ft 420 kts 336°
2026-04-25 16:02 18.78723 96.96388 35993 ft 420 kts 336°
2026-04-25 16:03 18.84283 96.94453 35992 ft 420 kts 336°
2026-04-25 16:03 18.89820 96.92520 35994 ft 420 kts 336°
2026-04-25 16:04 18.95350 96.90583 35996 ft 420 kts 336°
2026-04-25 16:04 19.00922 96.88629 36010 ft 420 kts 336°
2026-04-25 16:05 19.06473 96.86685 36006 ft 420 kts 336°
2026-04-25 16:06 19.14751 96.83778 35996 ft 419 kts 336°
2026-04-25 16:06 19.20297 96.81831 35992 ft 419 kts 336°
2026-04-25 16:07 19.25814 96.79903 35994 ft 420 kts 336°
2026-04-25 16:07 19.31378 96.77956 35998 ft 420 kts 336°
2026-04-25 16:08 19.36898 96.76017 36013 ft 419 kts 335°
2026-04-25 16:08 19.42467 96.74044 36029 ft 424 kts 335°
2026-04-25 16:09 19.48058 96.72078 36028 ft 422 kts 335°
2026-04-25 16:09 19.53596 96.70133 36025 ft 420 kts 335°
2026-04-25 16:10 19.59159 96.68174 36006 ft 419 kts 335°
2026-04-25 16:10 19.64701 96.66219 36003 ft 418 kts 335°
2026-04-25 16:11 19.70195 96.64275 36015 ft 418 kts 335°
2026-04-25 16:11 19.75716 96.62319 36009 ft 417 kts 335°
2026-04-25 16:12 19.81203 96.60381 36004 ft 417 kts 335°
2026-04-25 16:12 19.86720 96.58429 36008 ft 417 kts 335°
2026-04-25 16:13 19.92197 96.56491 36008 ft 417 kts 335°
2026-04-25 16:13 19.97704 96.54541 36010 ft 417 kts 335°
2026-04-25 16:14 20.03210 96.52588 35991 ft 416 kts 335°
2026-04-25 16:14 20.08714 96.50635 35995 ft 416 kts 335°
2026-04-25 16:15 20.14206 96.48681 35993 ft 416 kts 335°
2026-04-25 16:15 20.19661 96.46747 35991 ft 416 kts 335°
2026-04-25 16:16 20.25154 96.44798 35994 ft 416 kts 335°
2026-04-25 16:16 20.30649 96.42837 35993 ft 415 kts 335°
2026-04-25 16:17 20.36136 96.40876 36011 ft 416 kts 335°
2026-04-25 16:17 20.41594 96.38931 35913 ft 415 kts 335°
2026-04-25 16:17 20.44335 96.37955 35665 ft 414 kts 335°
2026-04-25 16:18 20.47069 96.36980 35291 ft 414 kts 335°
2026-04-25 16:18 20.48000 96.36648 35019 ft 415 kts 335°
2026-04-25 16:18 20.52581 96.35004 33642 ft 421 kts 335°
2026-04-25 16:18 20.55363 96.34013 33043 ft 417 kts 335°
2026-04-25 16:19 20.58070 96.33054 32505 ft 412 kts 336°
2026-04-25 16:19 20.60777 96.32092 31954 ft 408 kts 336°
2026-04-25 16:19 20.63467 96.31130 31401 ft 406 kts 336°
2026-04-25 16:20 20.68703 96.29263 31018 ft 383 kts 336°
2026-04-25 16:20 20.71195 96.28379 30917 ft 370 kts 335°
2026-04-25 16:20 20.76061 96.27167 30326 ft 358 kts 346°
2026-04-25 16:21 20.78528 96.26856 29623 ft 354 kts 346°
2026-04-25 16:21 20.80960 96.26567 29085 ft 350 kts 346°
2026-04-25 16:21 20.83378 96.26286 28565 ft 349 kts 347°
2026-04-25 16:21 20.85782 96.26007 28044 ft 347 kts 347°
2026-04-25 16:22 20.88201 96.25723 27183 ft 353 kts 347°
2026-04-25 16:22 20.90648 96.25428 26760 ft 351 kts 347°
2026-04-25 16:22 20.93022 96.25144 26265 ft 345 kts 347°
2026-04-25 16:22 20.95403 96.24859 25592 ft 342 kts 347°
2026-04-25 16:23 20.97762 96.24578 24916 ft 340 kts 347°
2026-04-25 16:23 21.00116 96.24296 24255 ft 337 kts 347°
2026-04-25 16:23 21.02418 96.24018 23610 ft 336 kts 347°
2026-04-25 16:23 21.04741 96.23735 22851 ft 334 kts 347°
2026-04-25 16:24 21.07048 96.23453 22143 ft 332 kts 348°
2026-04-25 16:24 21.09338 96.23174 21471 ft 329 kts 348°
2026-04-25 16:24 21.11605 96.22901 20823 ft 326 kts 349°
2026-04-25 16:24 21.13847 96.22631 20284 ft 322 kts 349°
2026-04-25 16:25 21.16063 96.22365 19848 ft 320 kts 349°
2026-04-25 16:25 21.16782 96.22278 19706 ft 321 kts 349°
2026-04-25 16:25 21.20462 96.21833 19405 ft 309 kts 349°
2026-04-25 16:25 21.22551 96.21584 19242 ft 302 kts 349°
2026-04-25 16:26 21.24646 96.21333 18894 ft 304 kts 350°
2026-04-25 16:26 21.26755 96.21077 18499 ft 307 kts 350°
2026-04-25 16:26 21.28892 96.20818 18077 ft 310 kts 351°
2026-04-25 16:26 21.31049 96.20555 17624 ft 313 kts 351°
2026-04-25 16:27 21.33218 96.20291 17208 ft 314 kts 351°
2026-04-25 16:27 21.35386 96.20027 16866 ft 313 kts 351°
2026-04-25 16:27 21.37520 96.19766 16575 ft 308 kts 351°
2026-04-25 16:27 21.39654 96.19508 16030 ft 305 kts 351°
2026-04-25 16:28 21.41748 96.19255 15613 ft 299 kts 351°
2026-04-25 16:28 21.43764 96.19013 15231 ft 293 kts 351°
2026-04-25 16:28 21.45799 96.18768 14860 ft 296 kts 352°
2026-04-25 16:28 21.47860 96.18516 14475 ft 299 kts 352°
2026-04-25 16:29 21.49943 96.18260 14098 ft 302 kts 352°
2026-04-25 16:29 21.52028 96.18006 13807 ft 301 kts 352°
2026-04-25 16:29 21.54117 96.17753 13551 ft 298 kts 352°
2026-04-25 16:29 21.56136 96.17510 13039 ft 295 kts 352°
2026-04-25 16:30 21.58175 96.17263 12509 ft 291 kts 352°
2026-04-25 16:30 21.60172 96.17019 12125 ft 286 kts 352°
2026-04-25 16:30 21.62159 96.16777 11737 ft 288 kts 352°
2026-04-25 16:30 21.64158 96.16534 11356 ft 290 kts 352°
2026-04-25 16:31 21.66157 96.16291 11043 ft 288 kts 352°
2026-04-25 16:31 21.68120 96.16050 10589 ft 284 kts 352°
2026-04-25 16:31 21.70059 96.15814 10204 ft 277 kts 352°
2026-04-25 16:31 21.71940 96.15544 9824 ft 267 kts 345°
2026-04-25 16:32 21.73686 96.14879 9432 ft 267 kts 330°
2026-04-25 16:32 21.75268 96.13836 9045 ft 267 kts 325°
2026-04-25 16:32 21.76840 96.12762 8665 ft 267 kts 325°
2026-04-25 16:32 21.78415 96.11692 8281 ft 267 kts 326°
2026-04-25 16:33 21.79974 96.10636 7894 ft 268 kts 326°
2026-04-25 16:33 21.81544 96.09575 7495 ft 268 kts 326°
2026-04-25 16:33 21.83138 96.08498 7073 ft 269 kts 326°
2026-04-25 16:33 21.84741 96.07416 6659 ft 271 kts 326°
2026-04-25 16:34 21.86342 96.06331 6235 ft 273 kts 326°
2026-04-25 16:34 21.87957 96.05237 5782 ft 275 kts 326°
2026-04-25 16:34 21.89560 96.04150 5347 ft 276 kts 326°
2026-04-25 16:34 21.91185 96.03049 4984 ft 274 kts 326°
2026-04-25 16:35 21.92502 96.01804 4797 ft 260 kts 299°
2026-04-25 16:35 21.92997 96.00015 4541 ft 246 kts 268°
2026-04-25 16:35 21.92775 95.98223 4176 ft 241 kts 249°
2026-04-25 16:35 21.92005 95.96645 3874 ft 234 kts 229°
2026-04-25 16:36 21.90862 95.95499 3709 ft 221 kts 211°
2026-04-25 16:36 21.90422 95.95215 3652 ft 215 kts 205°
2026-04-25 16:36 21.88112 95.94607 3321 ft 205 kts 179°
2026-04-25 16:36 21.86700 95.94795 3073 ft 205 kts 172°
2026-04-25 16:37 21.85303 95.95044 2833 ft 200 kts 172°
2026-04-25 16:37 21.83955 95.95283 2575 ft 192 kts 172°
2026-04-25 16:37 21.82680 95.95509 2331 ft 182 kts 172°
2026-04-25 16:37 21.81474 95.95723 2101 ft 169 kts 172°
2026-04-25 16:38 21.80365 95.95921 1923 ft 151 kts 173°
2026-04-25 16:38 21.79373 95.96097 1724 ft 139 kts 173°
2026-04-25 16:38 21.78433 95.96263 1547 ft 135 kts 173°
2026-04-25 16:38 21.77513 95.96425 1377 ft 133 kts 173°
2026-04-25 16:39 21.76627 95.96582 1214 ft 133 kts 173°
2026-04-25 16:39 21.75717 95.96743 1045 ft 134 kts 172°
2026-04-25 16:39 21.74792 95.96908 867 ft 135 kts 171°
2026-04-25 16:39 21.73857 95.97079 644 ft 136 kts 170°
2026-04-25 16:40 21.73239 95.97191 559 ft 136 kts 171°
2026-04-25 16:40 21.72298 95.97363 373 ft 137 kts 171°
2026-04-25 16:40 21.71377 95.97521 291 ft 125 kts 169°
2026-04-25 16:40 21.70540 95.97668 293 ft 49 kts 170°
2026-04-25 16:41 21.70312 95.97665 294 ft 22 kts 195°
2026-04-25 16:41 21.70263 95.97649 297 ft 22 kts 199°
2026-04-25 16:41 21.70280 95.97499 294 ft 10 kts 359°
2026-04-25 16:42 21.70342 95.97483 295 ft 9 kts 345°
2026-04-25 16:42 21.70351 95.97438 291 ft 6 kts 261°
2026-04-25 16:42 21.70344 95.97391 291 ft 6 kts 261°
2026-04-25 16:42 21.70338 95.97344 293 ft 8 kts 261°
2026-04-25 16:43 21.70354 95.97268 292 ft 13 kts 319°
2026-04-25 16:43 21.70433 95.97246 293 ft 10 kts 351°
2026-04-25 16:43 21.70500 95.97235 294 ft 10 kts 351°
2026-04-25 16:43 21.70507 95.97193 291 ft 6 kts 252°
2026-04-25 16:44 21.70501 95.97149 290 ft 6 kts 265°
2026-04-25 16:44 21.70501 95.97142 290 ft 0 kts 269°